Weather History for Clinton-Sherman, OK

Change the Weather History Date:

Thursday, July 3, 2014

  Actual Average Record
Temperature  
Mean Temperature 74 °F -  
Max Temperature 84 °F 91 °F 104 °F (2011)
Min Temperature 64 °F 68 °F 62 °F (2013)
Cooling Degree Days 9    
Growing Degree Days 24 (Base 50)    
Moisture  
Dew Point 59 °F    
Average Humidity 61    
Maximum Humidity 78    
Minimum Humidity 39    
Precipitation  
Precipitation 0.00 in - - ()
Sea Level Pressure  
Sea Level Pressure 30.15 in    
Wind  
Wind Speed 8 mph (ESE)    
Max Wind Speed 16 mph    
Max Gust Speed 20 mph    
Visibility 10 miles    
Events      
Averages and records for this station are not official NWS values.
T = Trace of Precipitation, MM = Missing Value Source: NWS Daily Summary

Daily Weather History Graph

Daily Weather History Graph

Search for Another Location

Airport:

Trip Planner

Search our weather history database for the weather conditions in past years. The results will help you decide how hot, cold, wet, or windy it might be!

Date:

Astronomy

Jul. 03, 2014 Rise Set
Actual Time 6:26 AM CDT 8:55 PM CDT
Civil Twilight 5:56 AM CDT 9:25 PM CDT
Nautical Twilight 5:20 AM CDT 10:01 PM CDT
Astronomical Twilight 4:39 AM CDT 10:42 PM CDT
Moon 12:13 PM CDT (7/3) 12:01 AM CDT (7/3)
Length of Visible Light 15h 28m
Length of Day
14h 28m
Waxing Crescent, 33% of the Moon is Illuminated
Jul 3
Waxing Crescent
Jul 5
First Quarter
Jul 12
Full
Jul 18
Last Quarter
Jul 26
New

Hourly Weather History & Observations

Time (CDT) Temp. Heat Index Dew Point Humidity Pressure Visibility Wind Dir Wind Speed Gust Speed Precip Events Conditions
12:53 AM 66.9 °F - 57.9 °F 73% 30.17 in 10.0 mi NE 5.8 mph - N/A   Clear
1:53 AM 66.0 °F - 57.0 °F 73% 30.16 in 10.0 mi East 6.9 mph - N/A   Clear
2:53 AM 64.9 °F - 57.0 °F 75% 30.15 in 10.0 mi ENE 6.9 mph - N/A   Partly Cloudy
3:53 AM 64.9 °F - 57.0 °F 75% 30.15 in 10.0 mi NE 5.8 mph - N/A   Partly Cloudy
4:53 AM 64.0 °F - 57.0 °F 78% 30.15 in 10.0 mi NE 4.6 mph - N/A   Mostly Cloudy
5:53 AM 66.0 °F - 57.0 °F 73% 30.16 in 10.0 mi ENE 3.5 mph - N/A   Overcast
6:53 AM 66.9 °F - 57.0 °F 70% 30.18 in 10.0 mi ESE 6.9 mph - N/A   Overcast
7:53 AM 69.1 °F - 57.9 °F 68% 30.17 in 10.0 mi East 6.9 mph - N/A   Mostly Cloudy
9:53 AM 73.0 °F - 55.0 °F 53% 30.21 in 10.0 mi SE 11.5 mph - N/A   Mostly Cloudy
10:53 AM 75.9 °F - 54.0 °F 46% 30.19 in 10.0 mi SE 12.7 mph - N/A   Overcast
11:53 AM 78.1 °F - 55.0 °F 45% 30.21 in 10.0 mi SE 13.8 mph - N/A   Overcast
12:53 PM 81.0 °F 80.5 °F 54.0 °F 39% 30.19 in 10.0 mi SE 16.1 mph - N/A   Scattered Clouds
2:53 PM 82.9 °F 83.3 °F 61.0 °F 47% 30.14 in 10.0 mi ESE 13.8 mph 19.6 mph N/A   Clear
3:53 PM 82.9 °F 83.3 °F 61.0 °F 47% 30.13 in 10.0 mi SE 11.5 mph 19.6 mph N/A   Clear
4:53 PM 84.0 °F 84.4 °F 61.0 °F 46% 30.11 in 10.0 mi SSE 10.4 mph - N/A   Clear
5:53 PM 84.9 °F 85.4 °F 62.1 °F 46% 30.08 in 10.0 mi South 9.2 mph - N/A   Clear
7:53 PM 82.9 °F 83.7 °F 62.1 °F 49% 30.08 in 10.0 mi SSE 9.2 mph - N/A   Partly Cloudy
8:53 PM 80.1 °F 81.5 °F 63.0 °F 56% 30.09 in 10.0 mi SE 5.8 mph - N/A   Clear
9:53 PM 77.0 °F - 64.0 °F 64% 30.12 in 10.0 mi SSE 9.2 mph - N/A   Scattered Clouds
10:53 PM 73.9 °F - 64.9 °F 73% 30.15 in 10.0 mi SSE 16.1 mph - N/A   Scattered Clouds
11:53 PM 72.0 °F - 64.9 °F 78% 30.16 in 10.0 mi SSE 10.4 mph - N/A   Clear